Minneapolis Flying Cloud, MN

10:39 PM CST on November 19, 2019 (GMT -0600)
Flying Cloud

Weather History for KFCM - September, 2019

Change the Weather History Date:

Tuesday, September 3, 2019

  Actual Average Record
Temperature  
Mean Temperature 69 °F -  
Max Temperature 75 °F 78 °F 91 °F (2012)
Min Temperature 62 °F 57 °F 48 °F (2013)
Cooling Degree Days 4    
Growing Degree Days 19 (Base 50)    
Moisture  
Dew Point 59 °F    
Average Humidity 73    
Maximum Humidity 93    
Minimum Humidity 43    
Precipitation  
Precipitation 0.00 in - - ()
Sea Level Pressure  
Sea Level Pressure 29.81 in    
Wind  
Wind Speed 8 mph (WNW)    
Max Wind Speed 21 mph    
Max Gust Speed 33 mph    
Visibility 10 miles    
Events      
Averages and records for this station are not official NWS values.
T = Trace of Precipitation, MM = Missing Value Source: NWS Daily Summary

Daily Weather History Graph

Daily Weather History Graph

Search for Another Location

Airport or City:

Astronomy

Sep. 03, 2019 Rise Set
Actual Time 6:38 AM CDT 7:47 PM CDT
Civil Twilight 6:08 AM CDT 8:17 PM CDT
Nautical Twilight 5:31 AM CDT 8:53 PM CDT
Astronomical Twilight 4:53 AM CDT 9:31 PM CDT
Moon 11:43 AM CDT (9/3) 10:31 PM CDT (9/3)
Length of Visible Light 14h 09m
Length of Day
13h 09m
Waxing Crescent, 25% of the Moon is Illuminated
Sep 3
Waxing Crescent
Sep 5
First Quarter
Sep 13
Full
Sep 21
Last Quarter
Sep 28
New

Hourly Weather History & Observations

Time (CDT) Temp. Dew Point Humidity Pressure Visibility Wind Dir Wind Speed Gust Speed Precip Events Conditions
12:04 AM 66.0 °F 63.0 °F 90% 29.82 in 10.0 mi Calm Calm - N/A   Overcast
12:17 AM 66.0 °F 62.1 °F 87% 29.82 in 10.0 mi NNE 3.5 mph - N/A   Overcast
12:53 AM 66.0 °F 62.1 °F 87% 29.80 in 10.0 mi ESE 4.6 mph - N/A   Overcast
1:11 AM 66.0 °F 62.1 °F 87% 29.80 in 10.0 mi East 4.6 mph - N/A   Overcast
1:53 AM 66.0 °F 63.0 °F 90% 29.76 in 10.0 mi ESE 6.9 mph - 0.00 in   Overcast
2:53 AM 66.0 °F 64.0 °F 93% 29.73 in 9.0 mi South 4.6 mph - 0.00 in   Overcast
3:53 AM 66.9 °F 64.0 °F 90% 29.70 in 10.0 mi South 4.6 mph - N/A   Overcast
4:53 AM 66.9 °F 64.0 °F 90% 29.70 in 10.0 mi West 4.6 mph - N/A   Mostly Cloudy
5:06 AM 66.9 °F 64.9 °F 93% 29.72 in 10.0 mi WSW 8.1 mph - N/A   Mostly Cloudy
5:40 AM 68.0 °F 64.9 °F 90% 29.72 in 10.0 mi WSW 8.1 mph - N/A   Overcast
5:53 AM 68.0 °F 64.9 °F 90% 29.71 in 10.0 mi WSW 5.8 mph - N/A   Mostly Cloudy
6:41 AM 69.1 °F 66.0 °F 90% 29.73 in 10.0 mi West 6.9 mph - N/A   Mostly Cloudy
6:53 AM 70.0 °F 66.0 °F 87% 29.73 in 10.0 mi WNW 12.7 mph 24.2 mph N/A   Mostly Cloudy
7:53 AM 68.0 °F 64.0 °F 87% 29.75 in 10.0 mi WNW 10.4 mph 18.4 mph N/A   Mostly Cloudy
8:53 AM 69.1 °F 62.1 °F 78% 29.76 in 10.0 mi NW 16.1 mph 25.3 mph N/A   Mostly Cloudy
9:29 AM 70.0 °F 63.0 °F 78% 29.77 in 10.0 mi WNW 9.2 mph - N/A   Mostly Cloudy
9:41 AM 70.0 °F 62.1 °F 76% 29.77 in 10.0 mi WNW 13.8 mph - N/A   Scattered Clouds
9:53 AM 70.0 °F 62.1 °F 76% 29.75 in 10.0 mi WNW 10.4 mph - N/A   Partly Cloudy
10:53 AM 73.9 °F 57.0 °F 55% 29.76 in 10.0 mi NW 13.8 mph 21.9 mph N/A   Clear
11:53 AM 75.0 °F 55.0 °F 50% 29.79 in 10.0 mi WNW 15.0 mph 31.1 mph N/A   Clear
12:53 PM 75.0 °F 54.0 °F 48% 29.80 in 10.0 mi WNW 18.4 mph 31.1 mph N/A   Partly Cloudy
1:53 PM 75.0 °F 53.1 °F 46% 29.81 in 10.0 mi WNW 20.7 mph 32.2 mph N/A   Partly Cloudy
2:53 PM 75.9 °F 52.0 °F 43% 29.83 in 10.0 mi WNW 18.4 mph 33.4 mph N/A   Mostly Cloudy
3:53 PM 73.9 °F 53.1 °F 48% 29.85 in 10.0 mi WNW 18.4 mph 31.1 mph N/A   Mostly Cloudy
4:53 PM 72.0 °F 54.0 °F 53% 29.87 in 10.0 mi NW 16.1 mph 26.5 mph N/A   Mostly Cloudy
5:53 PM 70.0 °F 52.0 °F 53% 29.90 in 10.0 mi WNW 12.7 mph 29.9 mph N/A   Overcast
6:53 PM 68.0 °F 53.1 °F 59% 29.92 in 10.0 mi NW 15.0 mph 27.6 mph N/A   Overcast
7:53 PM 66.0 °F 53.1 °F 63% 29.94 in 10.0 mi NW 15.0 mph 21.9 mph N/A   Mostly Cloudy
8:53 PM 66.0 °F 53.1 °F 63% 29.97 in 10.0 mi WNW 10.4 mph - N/A   Mostly Cloudy
9:53 PM 64.9 °F 54.0 °F 68% 29.99 in 10.0 mi NW 12.7 mph - N/A   Overcast
10:53 PM 63.0 °F 51.1 °F 65% 30.01 in 10.0 mi NNW 10.4 mph - N/A   Overcast
11:53 PM 62.1 °F 48.0 °F 60% 30.04 in 10.0 mi NNW 8.1 mph - N/A   Overcast